Retour au catalogue

STARLINK-4190

ActifCommunicationsVLEO
NORAD 53001·PAYLOAD·🇺🇸 United States

Lancé Jul 7, 2022 depuis Cape Canaveral Space Force Station

Loading…

Prochains Passages (prochaines 24 heures)

TLE

FraisSource: CelesTrak SupGP

Époque: Sep 14, 2026, 20:44 UTC

1 53001C 22076R   26257.86437500 -.00018963  00000+0 -54256-3 0  2571
2 53001  53.1577 310.1553 0001174  84.7130  17.5006 15.35407719    15

Suivez STARLINK-4190 en temps réel avec AllMySat

Download on the App Store